Lapse_Rate
4.6 4.5 4.5 4.6 4.6 4.7 4.6 4.5 4.5 4.5 4.6 4.7 4.8 4.9 5.0 5.0 5.1 5.1 5.2 5.3 5.2 5.3
4.6 4.6 4.6 4.6 4.6 4.5 4.4 4.5 4.5 4.5 4.6 4.7 4.8 4.9 5.0 5.1 5.2 5.2 5.1 5.1 5.2 5.2
4.5 4.4 4.3 4.3 4.1 4.1 4.2 4.2 4.3 4.4 4.5 4.5 4.6 4.7 4.9 5.0 4.9 5.0 5.2 5.2 5.0 5.1
4.5 4.5 4.4 4.3 4.3 4.2 4.1 4.1 4.0 4.1 4.1 4.3 4.5 4.6 4.7 4.8 4.9 5.1 5.2 5.2 5.1 4.9
4.7 4.7 4.6 4.3 4.2 4.1 4.0 4.0 4.0 4.1 4.2 4.3 4.4 4.4 4.6 4.7 4.8 5.0 5.1 5.2 5.1 5.0
4.6 4.6 4.4 4.3 4.0 3.8 3.6 3.7 3.9 3.9 4.0 4.1 4.3 4.4 4.5 4.6 4.7 5.0 5.1 5.1 5.4 5.2
4.5 4.5 4.5 4.4 4.3 4.0 3.6 3.5 3.5 3.6 3.9 4.1 4.2 4.3 4.3 4.5 4.6 4.7 5.1 5.2 5.1 5.3
4.5 4.4 4.5 4.4 4.4 4.3 4.1 3.8 3.8 3.7 3.8 3.9 4.1 4.2 4.4 4.6 4.9 4.5 5.0 5.1 5.1 4.9
4.4 4.5 4.5 4.3 4.2 4.2 3.9 3.8 3.8 4.0 4.1 4.3 4.3 4.4 4.4 4.8 4.8 5.1 5.2 5.1 5.2 5.2
4.2 4.3 4.3 4.1 4.3 4.4 4.2 4.1 4.1 4.1 4.2 4.2 4.3 4.3 4.4 4.8 5.2 5.4 5.3 5.3 5.3 5.1
4.4 4.3 4.2 4.3 4.4 4.4 4.4 4.1 4.1 4.0 4.2 4.5 4.5 4.5 4.4 4.7 5.4 5.5 5.4 5.6 5.4 5.4
4.9 4.9 4.7 4.6 4.6 4.4 4.2 4.1 3.8 4.5 4.7 4.8 4.9 4.7 4.6 4.9 5.2 5.4 6.0 5.6 5.5 5.4
4.9 4.8 4.6 4.3 4.3 4.3 4.3 4.2 4.1 4.6 5.2 5.4 5.2 5.1 5.1 5.4 5.5 5.8 5.9 5.8 5.4 5.5
4.8 4.7 4.6 4.4 4.3 4.4 4.5 4.2 4.4 5.1 5.8 5.8 5.3 5.4 5.7 5.8 5.9 5.9 5.9 5.7 5.1 5.4
Wind_Speed
9 6 6 6 4 3 3 3 4 5 7 7 8 7 7 5 5 6 5 6 5 4
10 10 8 7 6 5 4 4 3 5 5 5 5 6 6 4 5 6 4 5 5 5
12 11 9 8 8 7 6 5 5 5 5 5 5 5 6 5 5 6 4 4 6 6
12 11 11 11 10 9 7 6 5 5 5 5 5 5 5 5 4 6 5 5 5 6
13 12 12 12 12 10 9 8 7 6 6 6 5 5 5 5 4 4 5 5 5 5
13 13 13 12 12 10 9 9 8 7 7 6 6 6 6 5 5 4 4 4 5 6
13 13 13 12 12 11 10 10 8 8 7 7 6 6 6 6 6 6 4 4 4 4
12 12 12 12 11 11 10 9 9 8 7 7 7 6 6 6 6 6 6 5 5 4
10 11 12 12 11 10 11 10 9 9 9 8 6 9 8 7 7 5 6 6 6 5
10 11 12 12 12 12 12 10 11 9 8 8 7 10 10 10 6 5 5 4 5 6
9 11 11 11 12 12 10 11 9 8 8 7 6 11 11 10 6 6 6 5 5 6
9 10 10 12 13 12 11 10 8 7 8 9 7 12 12 9 6 6 7 7 6 6
9 10 11 12 12 11 9 9 5 6 7 10 8 11 12 10 5 7 5 6 6 10
9 9 10 9 9 9 9 7 5 6 7 8 9 8 13 13 6 5 5 5 4 5
Wind_Direction
230 234 238 244 255 277 286 302 313 319 325 331 328 331 333 324 333 328 335 332 332 326
227 226 230 231 233 239 244 257 285 295 295 303 306 318 322 317 331 326 339 334 331 333
228 227 228 233 233 237 244 242 263 284 293 297 300 307 316 319 334 330 341 348 338 342
232 227 224 226 224 226 232 236 248 261 270 277 286 292 297 309 319 326 334 342 348 342
232 224 225 228 226 222 223 225 230 243 251 258 265 272 277 289 308 309 322 333 333 339
236 233 231 231 230 224 225 228 227 230 240 245 250 259 265 273 277 280 298 318 325 332
240 234 233 230 226 220 218 225 225 229 236 238 243 248 254 264 277 279 277 284 301 312
246 244 236 234 226 217 216 217 220 226 225 231 234 239 240 260 268 272 283 287 280 293
245 244 239 232 228 216 215 215 215 214 224 223 232 236 225 249 277 276 274 287 300 309
250 242 236 230 226 219 214 210 215 214 218 226 230 232 234 241 257 266 275 280 293 300
251 250 240 230 229 226 218 216 213 211 213 220 231 234 233 241 250 257 268 268 267 280
257 252 241 231 225 222 214 208 203 206 209 210 221 218 227 231 244 248 253 259 262 265
263 252 245 238 225 220 216 204 179 197 220 219 216 218 219 226 233 249 249 259 257 264
273 262 252 247 224 214 205 175 177 193 217 217 221 228 218 221 230 242 256 257 263 257